Time,TemperatureF,DewpointF,PressureIn,WindDirection,WindDirectionDegrees,WindSpeedMPH,WindSpeedGustMPH,Humidity,HourlyPrecipIn,Conditions,Clouds,dailyrainin,SoftwareType,DateUTC
2013-03-30 00:00:00,42.0,41.0,-100.00,WNW,295,1.0,2.0,95,-99.99,,,-99.99,,2013-03-30 05:00:00,
2013-03-30 00:02:00,43.0,42.0,-100.00,WNW,300,1.0,3.0,95,-99.99,,,-99.99,,2013-03-30 05:02:00,
2013-03-30 00:12:00,44.0,42.0,-100.00,SSE,150,1.0,3.0,96,-99.99,,,-99.99,,2013-03-30 05:12:00,
2013-03-30 00:22:00,44.0,42.0,-100.00,SSE,150,1.0,3.0,96,-99.99,,,-99.99,,2013-03-30 05:22:00,
2013-03-30 00:32:00,43.0,41.0,-100.00,West,275,1.0,3.0,95,-99.99,,,-99.99,,2013-03-30 05:32:00,
2013-03-30 00:42:00,42.0,41.0,-100.00,WNW,295,1.0,2.0,95,-99.99,,,-99.99,,2013-03-30 05:42:00,
2013-03-30 00:52:00,42.0,41.0,-100.00,WNW,295,1.0,2.0,95,-99.99,,,-99.99,,2013-03-30 05:52:00,
2013-03-30 01:12:00,41.0,40.0,-100.00,WNW,285,0.0,2.0,96,-99.99,,,-99.99,,2013-03-30 06:12:00,
2013-03-30 01:23:00,41.0,40.0,-100.00,WNW,285,0.0,2.0,96,-99.99,,,-99.99,,2013-03-30 06:23:00,
2013-03-30 01:32:00,42.0,41.0,-100.00,WNW,295,2.0,5.0,96,-99.99,,,-99.99,,2013-03-30 06:32:00,
2013-03-30 01:42:00,41.0,40.0,-100.00,WSW,240,1.0,2.0,96,-99.99,,,-99.99,,2013-03-30 06:42:00,
2013-03-30 01:52:00,41.0,40.0,-100.00,WSW,240,1.0,2.0,96,-99.99,,,-99.99,,2013-03-30 06:52:00,
2013-03-30 02:02:00,41.0,40.0,-100.00,WNW,290,1.0,2.0,96,-99.99,,,-99.99,,2013-03-30 07:02:00,
2013-03-30 02:12:00,40.0,39.0,-100.00,WNW,295,1.0,4.0,96,-99.99,,,-99.99,,2013-03-30 07:12:00,
2013-03-30 02:22:00,40.0,39.0,-100.00,WNW,295,1.0,4.0,96,-99.99,,,-99.99,,2013-03-30 07:22:00,
2013-03-30 02:30:00,40.0,39.0,-100.00,NW,320,1.0,1.0,97,-99.99,,,-99.99,,2013-03-30 07:30:00,
2013-03-30 02:32:00,40.0,39.0,-100.00,WNW,295,1.0,2.0,97,-99.99,,,-99.99,,2013-03-30 07:32:00,
2013-03-30 02:42:00,40.0,39.0,-100.00,SSE,165,1.0,3.0,97,-99.99,,,-99.99,,2013-03-30 07:42:00,
2013-03-30 02:52:00,40.0,39.0,-100.00,SSE,165,1.0,3.0,97,-99.99,,,-99.99,,2013-03-30 07:52:00,
2013-03-30 03:02:00,39.0,39.0,-100.00,NW,320,0.0,4.0,97,-99.99,,,-99.99,,2013-03-30 08:02:00,
2013-03-30 03:12:00,40.0,39.0,-100.00,NW,320,1.0,1.0,97,-99.99,,,-99.99,,2013-03-30 08:12:00,
2013-03-30 03:22:00,40.0,39.0,-100.00,NW,320,1.0,1.0,97,-99.99,,,-99.99,,2013-03-30 08:22:00,
2013-03-30 03:42:00,40.0,39.0,-100.00,ESE,110,2.0,5.0,97,-99.99,,,-99.99,,2013-03-30 08:42:00,
2013-03-30 03:53:00,40.0,39.0,-100.00,ESE,110,2.0,5.0,97,-99.99,,,-99.99,,2013-03-30 08:53:00,
2013-03-30 04:02:00,39.0,38.0,-100.00,NW,320,0.0,2.0,97,-99.99,,,-99.99,,2013-03-30 09:02:00,
2013-03-30 04:12:00,40.0,39.0,-100.00,South,175,0.0,4.0,97,-99.99,,,-99.99,,2013-03-30 09:12:00,
2013-03-30 04:22:00,40.0,39.0,-100.00,South,175,0.0,4.0,97,-99.99,,,-99.99,,2013-03-30 09:22:00,
2013-03-30 04:43:00,40.0,39.0,-100.00,NNE,30,0.0,2.0,97,-99.99,,,-99.99,,2013-03-30 09:43:00,
2013-03-30 04:53:00,40.0,39.0,-100.00,NNE,30,0.0,2.0,97,-99.99,,,-99.99,,2013-03-30 09:53:00,
2013-03-30 05:02:00,39.0,39.0,-100.00,WNW,285,0.0,1.0,97,-99.99,,,-99.99,,2013-03-30 10:02:00,
2013-03-30 05:13:00,39.0,39.0,-100.00,East,90,0.0,1.0,97,-99.99,,,-99.99,,2013-03-30 10:13:00,
2013-03-30 05:23:00,39.0,39.0,-100.00,East,90,0.0,1.0,97,-99.99,,,-99.99,,2013-03-30 10:23:00,
2013-03-30 05:33:00,39.0,38.0,-100.00,NW,320,0.0,1.0,97,-99.99,,,-99.99,,2013-03-30 10:33:00,
2013-03-30 05:42:00,39.0,39.0,-100.00,WNW,290,1.0,2.0,97,-99.99,,,-99.99,,2013-03-30 10:42:00,
2013-03-30 05:52:00,39.0,39.0,-100.00,WNW,290,1.0,2.0,97,-99.99,,,-99.99,,2013-03-30 10:52:00,
2013-03-30 06:03:00,39.0,38.0,-100.00,NW,320,0.0,3.0,97,-99.99,,,-99.99,,2013-03-30 11:03:00,
2013-03-30 06:12:00,39.0,38.0,-100.00,NW,320,0.0,1.0,97,-99.99,,,-99.99,,2013-03-30 11:12:00,
2013-03-30 06:22:00,39.0,38.0,-100.00,NW,320,0.0,1.0,97,-99.99,,,-99.99,,2013-03-30 11:22:00,
2013-03-30 06:33:00,40.0,39.0,-100.00,WNW,300,1.0,2.0,97,-99.99,,,-99.99,,2013-03-30 11:33:00,
2013-03-30 06:42:00,40.0,39.0,-100.00,WNW,295,2.0,4.0,97,-99.99,,,-99.99,,2013-03-30 11:42:00,
2013-03-30 06:52:00,40.0,39.0,-100.00,WNW,295,2.0,4.0,97,-99.99,,,-99.99,,2013-03-30 11:52:00,
2013-03-30 07:02:00,43.0,43.0,-100.00,SW,235,1.0,5.0,98,-99.99,,,-99.99,,2013-03-30 12:02:00,
2013-03-30 07:12:00,43.0,42.0,-100.00,West,270,2.0,4.0,97,-99.99,,,-99.99,,2013-03-30 12:12:00,
2013-03-30 07:22:00,43.0,42.0,-100.00,West,270,2.0,4.0,97,-99.99,,,-99.99,,2013-03-30 12:22:00,
2013-03-30 07:32:00,46.0,45.0,-100.00,WNW,285,5.0,9.0,97,-99.99,,,-99.99,,2013-03-30 12:32:00,
2013-03-30 07:42:00,47.0,45.0,-100.00,West,275,7.0,14.0,94,-99.99,,,-99.99,,2013-03-30 12:42:00,
2013-03-30 07:52:00,47.0,45.0,-100.00,West,275,7.0,14.0,94,-99.99,,,-99.99,,2013-03-30 12:52:00,
2013-03-30 08:02:00,47.0,46.0,-100.00,West,270,4.0,12.0,94,-99.99,,,-99.99,,2013-03-30 13:02:00,
2013-03-30 08:12:00,47.0,45.0,-100.00,West,275,9.0,13.0,93,-99.99,,,-99.99,,2013-03-30 13:12:00,
2013-03-30 08:22:00,47.0,45.0,-100.00,West,275,9.0,13.0,93,-99.99,,,-99.99,,2013-03-30 13:22:00,
2013-03-30 08:32:00,48.0,46.0,-100.00,West,280,6.0,12.0,93,-99.99,,,-99.99,,2013-03-30 13:32:00,
2013-03-30 08:42:00,48.0,46.0,-100.00,West,275,9.0,16.0,93,-99.99,,,-99.99,,2013-03-30 13:42:00,
2013-03-30 08:52:00,48.0,46.0,-100.00,West,275,9.0,16.0,93,-99.99,,,-99.99,,2013-03-30 13:52:00,
2013-03-30 09:02:00,48.0,46.0,-100.00,West,275,7.0,14.0,92,-99.99,,,-99.99,,2013-03-30 14:02:00,
2013-03-30 09:11:00,49.0,46.0,-100.00,West,280,10.0,14.0,92,-99.99,,,-99.99,,2013-03-30 14:11:00,
2013-03-30 09:23:00,49.0,46.0,-100.00,West,280,10.0,14.0,92,-99.99,,,-99.99,,2013-03-30 14:23:00,
2013-03-30 09:32:00,49.0,46.0,-100.00,WNW,285,11.0,18.0,90,-99.99,,,-99.99,,2013-03-30 14:32:00,
2013-03-30 09:42:00,49.0,46.0,-100.00,West,280,12.0,18.0,90,-99.99,,,-99.99,,2013-03-30 14:42:00,
2013-03-30 09:52:00,49.0,46.0,-100.00,West,280,12.0,18.0,90,-99.99,,,-99.99,,2013-03-30 14:52:00,
2013-03-30 10:02:00,50.0,46.0,-100.00,West,275,11.0,16.0,88,-99.99,,,-99.99,,2013-03-30 15:02:00,
2013-03-30 10:12:00,50.0,47.0,-100.00,WNW,285,10.0,17.0,88,-99.99,,,-99.99,,2013-03-30 15:12:00,
2013-03-30 10:22:00,50.0,47.0,-100.00,WNW,285,10.0,17.0,88,-99.99,,,-99.99,,2013-03-30 15:22:00,
2013-03-30 10:33:00,50.0,47.0,-100.00,West,280,10.0,17.0,87,-99.99,,,-99.99,,2013-03-30 15:33:00,
2013-03-30 10:43:00,51.0,47.0,-100.00,West,280,11.0,17.0,86,-99.99,,,-99.99,,2013-03-30 15:43:00,
2013-03-30 10:52:00,51.0,47.0,-100.00,West,280,11.0,17.0,86,-99.99,,,-99.99,,2013-03-30 15:52:00,
2013-03-30 11:03:00,51.0,46.0,-100.00,West,275,9.0,16.0,83,-99.99,,,-99.99,,2013-03-30 16:03:00,
2013-03-30 11:13:00,51.0,46.0,-100.00,West,280,7.0,16.0,83,-99.99,,,-99.99,,2013-03-30 16:13:00,
2013-03-30 11:23:00,51.0,46.0,-100.00,West,280,7.0,16.0,83,-99.99,,,-99.99,,2013-03-30 16:23:00,
2013-03-30 11:33:00,52.0,46.0,-100.00,West,280,11.0,14.0,81,-99.99,,,-99.99,,2013-03-30 16:33:00,
2013-03-30 11:43:00,52.0,47.0,-100.00,West,280,7.0,15.0,83,-99.99,,,-99.99,,2013-03-30 16:43:00,
2013-03-30 11:52:00,52.0,47.0,-100.00,West,280,7.0,15.0,83,-99.99,,,-99.99,,2013-03-30 16:52:00,
2013-03-30 12:02:00,52.0,47.0,-100.00,WNW,285,3.0,10.0,83,-99.99,,,-99.99,,2013-03-30 17:02:00,
2013-03-30 12:13:00,52.0,47.0,-100.00,WNW,285,8.0,14.0,81,-99.99,,,-99.99,,2013-03-30 17:13:00,
2013-03-30 12:23:00,52.0,47.0,-100.00,WNW,285,8.0,14.0,81,-99.99,,,-99.99,,2013-03-30 17:23:00,
2013-03-30 12:32:00,52.0,46.0,-100.00,WNW,285,8.0,16.0,82,-99.99,,,-99.99,,2013-03-30 17:32:00,
2013-03-30 12:42:00,52.0,47.0,-100.00,WNW,285,9.0,14.0,83,-99.99,,,-99.99,,2013-03-30 17:42:00,
2013-03-30 12:52:00,52.0,47.0,-100.00,WNW,285,9.0,14.0,83,-99.99,,,-99.99,,2013-03-30 17:52:00,
2013-03-30 13:03:00,51.0,47.0,-100.00,West,280,2.0,5.0,86,-99.99,,,-99.99,,2013-03-30 18:03:00,
2013-03-30 13:12:00,51.0,48.0,-100.00,WNW,295,2.0,4.0,88,-99.99,,,-99.99,,2013-03-30 18:12:00,
2013-03-30 13:22:00,51.0,48.0,-100.00,WNW,295,2.0,4.0,88,-99.99,,,-99.99,,2013-03-30 18:22:00,
2013-03-30 13:32:00,51.0,49.0,-100.00,West,265,2.0,4.0,93,-99.99,,,-99.99,,2013-03-30 18:32:00,
2013-03-30 13:42:00,51.0,49.0,-100.00,West,275,3.0,5.0,94,-99.99,,,-99.99,,2013-03-30 18:42:00,
2013-03-30 13:53:00,51.0,49.0,-100.00,West,275,3.0,5.0,94,-99.99,,,-99.99,,2013-03-30 18:53:00,
2013-03-30 14:03:00,51.0,49.0,-100.00,WNW,285,7.0,10.0,94,-99.99,,,-99.99,,2013-03-30 19:03:00,
2013-03-30 14:13:00,51.0,49.0,-100.00,West,280,5.0,10.0,92,-99.99,,,-99.99,,2013-03-30 19:13:00,
2013-03-30 14:22:00,51.0,49.0,-100.00,West,280,5.0,10.0,92,-99.99,,,-99.99,,2013-03-30 19:22:00,
2013-03-30 14:32:00,51.0,48.0,-100.00,West,275,8.0,11.0,90,-99.99,,,-99.99,,2013-03-30 19:32:00,
2013-03-30 14:42:00,51.0,49.0,-100.00,West,270,6.0,11.0,91,-99.99,,,-99.99,,2013-03-30 19:42:00,
2013-03-30 14:52:00,51.0,49.0,-100.00,West,270,6.0,11.0,91,-99.99,,,-99.99,,2013-03-30 19:52:00,
2013-03-30 15:02:00,53.0,49.0,-100.00,WNW,295,5.0,9.0,89,-99.99,,,-99.99,,2013-03-30 20:02:00,
2013-03-30 15:12:00,53.0,50.0,-100.00,WNW,295,4.0,9.0,90,-99.99,,,-99.99,,2013-03-30 20:12:00,
2013-03-30 15:22:00,53.0,50.0,-100.00,WNW,295,4.0,9.0,90,-99.99,,,-99.99,,2013-03-30 20:22:00,
2013-03-30 15:32:00,54.0,49.0,-100.00,West,275,5.0,12.0,85,-99.99,,,-99.99,,2013-03-30 20:32:00,
2013-03-30 15:42:00,54.0,49.0,-100.00,West,275,5.0,10.0,83,-99.99,,,-99.99,,2013-03-30 20:42:00,
2013-03-30 15:52:00,54.0,49.0,-100.00,West,275,5.0,10.0,83,-99.99,,,-99.99,,2013-03-30 20:52:00,
2013-03-30 16:02:00,54.0,49.0,-100.00,West,280,4.0,11.0,84,-99.99,,,-99.99,,2013-03-30 21:02:00,
2013-03-30 16:12:00,54.0,48.0,-100.00,West,275,8.0,11.0,82,-99.99,,,-99.99,,2013-03-30 21:12:00,
2013-03-30 16:22:00,54.0,48.0,-100.00,West,275,8.0,11.0,82,-99.99,,,-99.99,,2013-03-30 21:22:00,
2013-03-30 16:34:00,55.0,49.0,-100.00,WNW,290,5.0,8.0,80,-99.99,,,-99.99,,2013-03-30 21:34:00,
2013-03-30 16:43:00,54.0,48.0,-100.00,WNW,285,6.0,11.0,80,-99.99,,,-99.99,,2013-03-30 21:43:00,
2013-03-30 16:52:00,54.0,48.0,-100.00,WNW,285,6.0,11.0,80,-99.99,,,-99.99,,2013-03-30 21:52:00,
2013-03-30 17:03:00,55.0,48.0,-100.00,West,280,5.0,9.0,79,-99.99,,,-99.99,,2013-03-30 22:03:00,
2013-03-30 17:13:00,55.0,49.0,-100.00,West,275,4.0,7.0,80,-99.99,,,-99.99,,2013-03-30 22:13:00,
2013-03-30 17:23:00,55.0,49.0,-100.00,West,275,4.0,7.0,80,-99.99,,,-99.99,,2013-03-30 22:23:00,
2013-03-30 17:33:00,56.0,50.0,-100.00,WNW,290,4.0,9.0,80,-99.99,,,-99.99,,2013-03-30 22:33:00,
2013-03-30 17:43:00,56.0,49.0,-100.00,West,275,2.0,7.0,78,-99.99,,,-99.99,,2013-03-30 22:43:00,
2013-03-30 17:53:00,56.0,49.0,-100.00,West,275,2.0,7.0,78,-99.99,,,-99.99,,2013-03-30 22:53:00,
2013-03-30 18:02:00,56.0,50.0,-100.00,West,265,3.0,5.0,79,-99.99,,,-99.99,,2013-03-30 23:02:00,
2013-03-30 18:12:00,56.0,49.0,-100.00,West,275,4.0,6.0,78,-99.99,,,-99.99,,2013-03-30 23:12:00,
2013-03-30 18:22:00,56.0,49.0,-100.00,West,275,4.0,6.0,78,-99.99,,,-99.99,,2013-03-30 23:22:00,
2013-03-30 18:33:00,56.0,50.0,-100.00,WSW,255,3.0,5.0,79,-99.99,,,-99.99,,2013-03-30 23:33:00,
2013-03-30 18:42:00,56.0,50.0,-100.00,WSW,240,4.0,7.0,81,-99.99,,,-99.99,,2013-03-30 23:42:00,
2013-03-30 18:52:00,56.0,50.0,-100.00,WSW,240,4.0,7.0,81,-99.99,,,-99.99,,2013-03-30 23:52:00,
2013-03-30 19:02:00,55.0,49.0,-100.00,SW,220,4.0,6.0,81,-99.99,,,-99.99,,2013-03-31 00:02:00,
2013-03-30 19:12:00,55.0,49.0,-100.00,West,260,4.0,5.0,81,-99.99,,,-99.99,,2013-03-31 00:12:00,
2013-03-30 19:22:00,55.0,49.0,-100.00,West,260,4.0,5.0,81,-99.99,,,-99.99,,2013-03-31 00:22:00,
2013-03-30 19:32:00,56.0,50.0,-100.00,West,265,3.0,5.0,81,-99.99,,,-99.99,,2013-03-31 00:32:00,
2013-03-30 19:42:00,55.0,50.0,-100.00,WSW,250,4.0,5.0,81,-99.99,,,-99.99,,2013-03-31 00:42:00,
2013-03-30 19:52:00,55.0,50.0,-100.00,WSW,250,4.0,5.0,81,-99.99,,,-99.99,,2013-03-31 00:52:00,
2013-03-30 20:02:00,55.0,50.0,-100.00,West,275,3.0,4.0,83,-99.99,,,-99.99,,2013-03-31 01:02:00,
2013-03-30 20:12:00,54.0,50.0,-100.00,West,265,3.0,5.0,84,-99.99,,,-99.99,,2013-03-31 01:12:00,
2013-03-30 20:22:00,54.0,50.0,-100.00,West,265,3.0,5.0,84,-99.99,,,-99.99,,2013-03-31 01:22:00,
2013-03-30 20:32:00,54.0,50.0,-100.00,WNW,295,1.0,3.0,85,-99.99,,,-99.99,,2013-03-31 01:32:00,
2013-03-30 20:42:00,53.0,49.0,-100.00,West,265,0.0,2.0,86,-99.99,,,-99.99,,2013-03-31 01:42:00,
2013-03-30 20:52:00,53.0,49.0,-100.00,West,265,0.0,2.0,86,-99.99,,,-99.99,,2013-03-31 01:52:00,
2013-03-30 21:02:00,54.0,50.0,-100.00,West,265,2.0,4.0,86,-99.99,,,-99.99,,2013-03-31 02:02:00,
2013-03-30 21:13:00,53.0,50.0,-100.00,WSW,255,1.0,4.0,87,-99.99,,,-99.99,,2013-03-31 02:13:00,
2013-03-30 21:22:00,53.0,50.0,-100.00,WSW,255,1.0,4.0,87,-99.99,,,-99.99,,2013-03-31 02:22:00,
2013-03-30 21:32:00,53.0,50.0,-100.00,ESE,120,1.0,3.0,89,-99.99,,,-99.99,,2013-03-31 02:32:00,
2013-03-30 21:43:00,53.0,49.0,-100.00,NW,305,0.0,2.0,89,-99.99,,,-99.99,,2013-03-31 02:43:00,
2013-03-30 21:52:00,53.0,49.0,-100.00,NW,305,0.0,2.0,89,-99.99,,,-99.99,,2013-03-31 02:52:00,
2013-03-30 22:00:00,51.0,-99.9,-100.00,South,170,1.0,3.0,94,-99.99,,,-99.99,,2013-03-31 03:00:00,
2013-03-30 22:02:00,51.0,49.0,-100.00,NW,315,0.0,2.0,94,-99.99,,,-99.99,,2013-03-31 03:02:00,
2013-03-30 22:12:00,52.0,49.0,-100.00,West,275,1.0,3.0,91,-99.99,,,-99.99,,2013-03-31 03:12:00,
2013-03-30 22:22:00,52.0,49.0,-100.00,West,275,1.0,3.0,91,-99.99,,,-99.99,,2013-03-31 03:22:00,
2013-03-30 22:33:00,51.0,49.0,-100.00,WNW,285,0.0,3.0,93,-99.99,,,-99.99,,2013-03-31 03:33:00,
2013-03-30 22:43:00,51.0,49.0,-100.00,South,170,1.0,3.0,94,-99.99,,,-99.99,,2013-03-31 03:43:00,
2013-03-30 22:53:00,51.0,49.0,-100.00,South,170,1.0,3.0,94,-99.99,,,-99.99,,2013-03-31 03:53:00,
2013-03-30 23:13:00,51.0,49.0,-100.00,ESE,115,0.0,3.0,94,-99.99,,,-99.99,,2013-03-31 04:13:00,
2013-03-30 23:23:00,51.0,49.0,-100.00,ESE,115,0.0,3.0,94,-99.99,,,-99.99,,2013-03-31 04:23:00,
2013-03-30 23:33:00,50.0,48.0,-100.00,South,180,0.0,4.0,95,-99.99,,,-99.99,,2013-03-31 04:33:00,
2013-03-30 23:42:00,49.0,48.0,-100.00,SSW,195,0.0,2.0,96,-99.99,,,-99.99,,2013-03-31 04:42:00,
2013-03-30 23:52:00,49.0,48.0,-100.00,SSW,195,0.0,2.0,96,-99.99,,,-99.99,,2013-03-31 04:52:00,